When you browse on this site, cookies collect data to enhance your experience and personalize the content and advertising you see.
Visit our Privacy Policy to learn more. By continuing to use the site, you agree to this use of cookies and data.
  • în România
  • Lista ţărilor
  • Pe 7 zile
  • Temperatura apei
  • Hartă satelitară
  • Meteo pe hartă
  • Widget-uri
  • user-avatar
    Intrare

    Meteo pe oră la Arpino

    Astăzi, 18 Iulie, Joi

    Timp Temperatura Precipitaţii Vânt Presiune Umiditate
    00:00 +19°C° 0 mm 1 m/s 722 mmHg 70%
    01:00 +19°C° 0 mm 1 m/s 722 mmHg 72%
    02:00 +19°C° 0 mm 1 m/s 721 mmHg 72%
    03:00 +19°C° 0 mm 1 m/s 721 mmHg 72%
    04:00 +19°C° 0 mm 1 m/s 721 mmHg 72%
    05:00 +18°C° 0 mm 0 m/s 721 mmHg 68%
    06:00 +19°C° 0 mm 0 m/s 721 mmHg 65%
    07:00 +21°C° 0 mm 0 m/s 722 mmHg 60%
    08:00 +23°C° 0 mm 0 m/s 722 mmHg 56%
    09:00 +26°C° 0 mm 1 m/s 722 mmHg 52%
    10:00 +28°C° 0 mm 1 m/s 723 mmHg 48%
    11:00 +28°C° 0.1 mm 1 m/s 723 mmHg 46%
    12:00 +29°C° 0.1 mm 2 m/s 723 mmHg 44%
    13:00 +30°C° 0.1 mm 2 m/s 723 mmHg 43%
    14:00 +29°C° 0.5 mm 2 m/s 723 mmHg 48%
    15:00 +28°C° 0.5 mm 2 m/s 723 mmHg 53%
    16:00 +27°C° 0.5 mm 2 m/s 723 mmHg 57%
    17:00 +26°C° 0.5 mm 2 m/s 722 mmHg 62%
    18:00 +25°C° 0.5 mm 1 m/s 722 mmHg 66%
    19:00 +23°C° 0.5 mm 1 m/s 722 mmHg 71%
    20:00 +22°C° 0 mm 1 m/s 723 mmHg 73%
    21:00 +21°C° 0 mm 1 m/s 723 mmHg 76%
    22:00 +20°C° 0 mm 1 m/s 723 mmHg 78%
    23:00 +20°C° 0 mm 1 m/s 723 mmHg 79%

    Mâine, 19 Iulie, Vineri

    Timp Temperatura Precipitaţii Vânt Presiune Umiditate
    00:00 +20°C° 0 mm 1 m/s 724 mmHg 79%
    01:00 +19°C° 0 mm 1 m/s 724 mmHg 79%
    02:00 +19°C° 0 mm 1 m/s 723 mmHg 79%
    03:00 +19°C° 0 mm 1 m/s 723 mmHg 79%
    04:00 +19°C° 0 mm 1 m/s 723 mmHg 79%
    05:00 +18°C° 0 mm 0 m/s 724 mmHg 75%
    06:00 +20°C° 0 mm 0 m/s 724 mmHg 71%
    07:00 +21°C° 0 mm 0 m/s 724 mmHg 67%
    08:00 +23°C° 0 mm 0 m/s 725 mmHg 61%
    09:00 +27°C° 0 mm 1 m/s 725 mmHg 55%
    10:00 +28°C° 0 mm 1 m/s 726 mmHg 50%
    11:00 +29°C° 0.3 mm 1 m/s 726 mmHg 48%
    12:00 +30°C° 0.3 mm 1 m/s 726 mmHg 46%
    13:00 +31°C° 0.3 mm 1 m/s 726 mmHg 44%
    14:00 +30°C° 0.3 mm 1 m/s 726 mmHg 47%
    15:00 +29°C° 0.3 mm 1 m/s 725 mmHg 51%
    16:00 +28°C° 0.3 mm 2 m/s 725 mmHg 54%
    17:00 +27°C° 0.6 mm 1 m/s 725 mmHg 62%
    18:00 +25°C° 0.6 mm 1 m/s 725 mmHg 69%
    19:00 +24°C° 0.6 mm 1 m/s 725 mmHg 76%
    20:00 +23°C° 0.1 mm 1 m/s 725 mmHg 77%
    21:00 +22°C° 0.1 mm 1 m/s 726 mmHg 78%
    22:00 +21°C° 0.1 mm 1 m/s 726 mmHg 79%
    23:00 +21°C° 0 mm 1 m/s 726 mmHg 78%

    Poimâine, 20 Iulie, Sâmbătă

    Timp Temperatura Precipitaţii Vânt Presiune Umiditate
    00:00 +21°C° 0 mm 1 m/s 726 mmHg 77%
    01:00 +21°C° 0 mm 1 m/s 725 mmHg 77%
    02:00 +20°C° 0 mm 1 m/s 725 mmHg 76%
    03:00 +20°C° 0 mm 1 m/s 725 mmHg 76%
    04:00 +20°C° 0 mm 1 m/s 725 mmHg 75%
    05:00 +22°C° 0 mm 1 m/s 726 mmHg 72%
    06:00 +21°C° 0 mm 0 m/s 726 mmHg 68%
    07:00 +23°C° 0 mm 0 m/s 726 mmHg 65%
    08:00 +24°C° 0 mm 0 m/s 727 mmHg 59%
    09:00 +28°C° 0 mm 1 m/s 727 mmHg 52%
    10:00 +30°C° 0 mm 1 m/s 728 mmHg 46%
    11:00 +31°C° 0 mm 1 m/s 728 mmHg 45%
    12:00 +31°C° 0 mm 1 m/s 728 mmHg 44%
    13:00 +32°C° 0 mm 1 m/s 728 mmHg 42%
    14:00 +31°C° 0.1 mm 1 m/s 728 mmHg 46%
    15:00 +30°C° 0.1 mm 1 m/s 727 mmHg 49%
    16:00 +30°C° 0.1 mm 1 m/s 727 mmHg 52%
    17:00 +29°C° 0 mm 1 m/s 727 mmHg 56%
    18:00 +28°C° 0 mm 1 m/s 727 mmHg 59%
    19:00 +27°C° 0 mm 1 m/s 727 mmHg 63%
    20:00 +26°C° 0 mm 1 m/s 727 mmHg 65%
    21:00 +24°C° 0 mm 1 m/s 728 mmHg 67%
    22:00 +23°C° 0 mm 1 m/s 728 mmHg 69%
    23:00 +23°C° 0 mm 1 m/s 728 mmHg 70%

    21 Iulie, Duminică

    Timp Temperatura Precipitaţii Vânt Presiune Umiditate
    00:00 +23°C° 0 mm 1 m/s 728 mmHg 70%
    01:00 +22°C° 0 mm 1 m/s 728 mmHg 70%
    02:00 +22°C° 0 mm 1 m/s 728 mmHg 70%
    03:00 +22°C° 0 mm 1 m/s 727 mmHg 70%
    04:00 +22°C° 0 mm 1 m/s 727 mmHg 70%
    05:00 +23°C° 0 mm 1 m/s 728 mmHg 66%
    06:00 +25°C° 0 mm 1 m/s 728 mmHg 63%
    07:00 +26°C° 0 mm 1 m/s 728 mmHg 60%
    08:00 +28°C° 0 mm 1 m/s 729 mmHg 54%
    09:00 +30°C° 0 mm 1 m/s 729 mmHg 48%
    10:00 +32°C° 0 mm 1 m/s 729 mmHg 42%
    11:00 +33°C° 0 mm 1 m/s 729 mmHg 41%
    12:00 +33°C° 0 mm 1 m/s 729 mmHg 39%
    13:00 +34°C° 0 mm 1 m/s 729 mmHg 38%
    14:00 +33°C° 0 mm 1 m/s 729 mmHg 38%
    15:00 +33°C° 0 mm 1 m/s 729 mmHg 39%
    16:00 +34°C° 0 mm 2 m/s 729 mmHg 40%
    17:00 +31°C° 0 mm 1 m/s 729 mmHg 45%
    18:00 +30°C° 0 mm 1 m/s 728 mmHg 49%
    19:00 +28°C° 0 mm 1 m/s 728 mmHg 54%
    20:00 +27°C° 0 mm 1 m/s 728 mmHg 56%
    21:00 +26°C° 0 mm 1 m/s 729 mmHg 58%
    22:00 +24°C° 0 mm 1 m/s 729 mmHg 60%
    23:00 +24°C° 0 mm 1 m/s 729 mmHg 60%

    22 Iulie, Luni

    Timp Temperatura Precipitaţii Vânt Presiune Umiditate
    00:00 +24°C° 0 mm 1 m/s 728 mmHg 59%
    01:00 +24°C° 0 mm 1 m/s 728 mmHg 59%
    02:00 +23°C° 0 mm 1 m/s 728 mmHg 60%
    03:00 +23°C° 0 mm 1 m/s 728 mmHg 61%
    04:00 +23°C° 0 mm 1 m/s 728 mmHg 62%
    05:00 +25°C° 0 mm 1 m/s 728 mmHg 60%
    06:00 +26°C° 0 mm 1 m/s 728 mmHg 58%
    07:00 +28°C° 0 mm 1 m/s 729 mmHg 56%
    08:00 +29°C° 0 mm 1 m/s 729 mmHg 50%
    09:00 +31°C° 0 mm 1 m/s 729 mmHg 44%
    10:00 +33°C° 0 mm 1 m/s 730 mmHg 39%
    11:00 +34°C° 0 mm 1 m/s 730 mmHg 37%
    12:00 +34°C° 0 mm 1 m/s 729 mmHg 36%
    13:00 +35°C° 0 mm 1 m/s 729 mmHg 35%
    14:00 +35°C° 0 mm 1 m/s 729 mmHg 34%
    15:00 +35°C° 0 mm 1 m/s 729 mmHg 34%
    16:00 +35°C° 0 mm 1 m/s 729 mmHg 34%
    17:00 +33°C° 0 mm 1 m/s 728 mmHg 39%
    18:00 +31°C° 0 mm 1 m/s 728 mmHg 43%
    19:00 +29°C° 0 mm 1 m/s 728 mmHg 48%
    20:00 +28°C° 0 mm 1 m/s 728 mmHg 51%
    21:00 +27°C° 0 mm 1 m/s 728 mmHg 54%
    22:00 +25°C° 0 mm 1 m/s 728 mmHg 57%
    23:00 +25°C° 0 mm 1 m/s 728 mmHg 58%

    23 Iulie, Marţi

    Timp Temperatura Precipitaţii Vânt Presiune Umiditate
    00:00 +25°C° 0 mm 1 m/s 727 mmHg 59%
    01:00 +24°C° 0 mm 1 m/s 727 mmHg 60%
    02:00 +24°C° 0 mm 1 m/s 727 mmHg 61%
    03:00 +24°C° 0 mm 1 m/s 726 mmHg 62%
    04:00 +24°C° 0 mm 1 m/s 726 mmHg 63%
    05:00 +25°C° 0 mm 1 m/s 726 mmHg 61%
    06:00 +26°C° 0 mm 1 m/s 727 mmHg 59%
    07:00 +28°C° 0 mm 1 m/s 727 mmHg 56%
    08:00 +30°C° 0 mm 1 m/s 727 mmHg 50%
    09:00 +32°C° 0 mm 1 m/s 727 mmHg 44%
    10:00 +34°C° 0 mm 1 m/s 727 mmHg 38%
    11:00 +34°C° 0 mm 1 m/s 727 mmHg 36%
    12:00 +35°C° 0 mm 1 m/s 727 mmHg 33%
    13:00 +36°C° 0 mm 1 m/s 727 mmHg 30%
    14:00 +36°C° 0 mm 1 m/s 727 mmHg 31%
    15:00 +35°C° 0 mm 1 m/s 726 mmHg 32%
    16:00 +36°C° 0 mm 2 m/s 726 mmHg 32%
    17:00 +33°C° 0 mm 1 m/s 726 mmHg 38%
    18:00 +31°C° 0 mm 1 m/s 725 mmHg 43%
    19:00 +30°C° 0 mm 1 m/s 725 mmHg 49%
    20:00 +28°C° 0 mm 1 m/s 725 mmHg 53%
    21:00 +27°C° 0 mm 1 m/s 725 mmHg 57%
    22:00 +25°C° 0 mm 2 m/s 725 mmHg 60%
    23:00 +25°C° 0 mm 2 m/s 725 mmHg 60%
    Arată mai mult